Location: Grossmotten
(48.5500°N, 15.3833°E)
Time: 09:50:31
(UTC+00:00)

Cosmos 2360 Rocket - Pass Details

Date: 15 November 2019
Orbit: 832 x 847 km, 71.0° (Epoch: 08 December)

Event Time Altitude Azimuth Distance (km) Brightness Sun altitude
Exits shadow 05:19:35 - 330° (NNW) 3,349 4.9 -7.9°
Reaches altitude 10° 05:21:51 10° 328° (NNW) 2,480 4.2 -7.5°
Maximum altitude 05:27:31 70° 246° (WSW) 902 2.3 -6.6°
Drops below altitude 10° 05:33:08 10° 164° (SSE) 2,463 5.2 -5.8°
Sets 05:35:35 0° 162° (SSE) 3,392 6.0 -5.4°
